TIME,DELAY(SENSOR),PRES,OXYGEN,RAWTEMP,T(OPTODE),TCPHASE,FLUOR,BETA(BETA700),BETA(BETA412),BETA(BETA440),CDOM,C(CSC),ED(ED411.90),ED(ED443.80),ED(ED489.40),ED(ED554.70),LU(LU412.20),LU(LU443.80),LU(LU489.40),LU(LU555.00),COMP,TILTX,TILTY,CHECK
1343945395,5806,839.1400146484375000,171.4886932373047000,395.7171936035156000,10.7332096099853520,38.0488815307617200,52,99,97,79,79,14177,2146956873,2147515245,2147285403,2147499090,2147092644,2146928749,2147699620,2147120905,2532,-2,8,17482
1343948991,5806,954.1400146484375000,181.8423004150390600,475.5357971191406000,8.2865371704101560,38.6507987976074200,52,105,101,79,82,14168,2146958043,2147515538,2147293037,2147516644,2147090322,2146921572,2147714870,2147117760,2230,-2,8,47132
1343952591,5807,976.1900024414062000,192.4790039062500000,489.8742980957031000,7.8432950973510740,38.1957702636718750,53,104,100,78,82,14158,2146958765,2147517613,2147296320,2147519305,2147090258,2146924297,2147712137,2147118628,113,-2,8,41348
1343956191,5807,983.8300170898438000,192.9474029541015600,490.5921020507812500,7.8210740089416500,38.1781883239746100,53,104,100,78,81,14160,2146962020,2147514249,2147293805,2147519140,2147092178,2146921664,2147720073,2147118016,353,-2,8,49292
1343959791,5804,983.2999877929688000,193.5252990722656200,492.1318969726562500,7.7733898162841800,38.1687202453613300,52,103,99,78,81,14157,2146960950,2147518619,2147293412,2147517632,2147091026,2146924214,2147718893,2147117120,3569,-1,8,13131
1343963391,5809,986.1300048828125000,194.8634948730468800,495.7536010742187500,7.6611747741699220,38.1458587646484400,52,104,101,79,82,14160,2146958482,2147517348,2147294290,2147519725,2147090578,2146927908,2147715053,2147115858,69,-1,8,18187
1343966991,5807,990.9299926757812000,194.2312927246093800,494.4173889160156000,7.7025837898254395,38.1630210876464840,52,105,98,79,81,14153,2146957220,2147517659,2147296493,2147521389,2147093686,2146927158,2147717577,2147118656,624,-2,8,43355
1343970591,5805,993.5000000000000000,195.0894012451172000,494.8030090332031000,7.6906352043151855,38.1149101257324200,52,104,99,79,80,14154,2146957476,2147519012,2147299638,2147519286,2147092763,2146929316,2147714139,2147118244,609,-2,8,8964
1343974191,5808,992.7700195312500000,194.1289978027343800,495.0367126464844000,7.6833930015563965,38.1799888610839840,52,103,99,79,83,14155,2146960192,2147513910,2147293238,2147520822,2147093312,2146924169,2147717796,2147119798,422,-2,8,31775
1343977791,5803,990.9099731445312000,194.6143035888672000,495.8894958496094000,7.6569619178771970,38.1638908386230500,53,103,100,80,82,14151,2146958107,2147513206,2147296713,2147520054,2147093028,2146923940,2147716553,2147116297,3471,-2,8,10750
1343981391,5807,992.0999755859375000,195.9279937744140600,496.2193908691406000,7.6467351913452150,38.0868606567382800,52,105,101,80,82,14153,2146959268,2147514806,2147295405,2147520557,2147091584,2146920228,2147718153,2147117888,3594,-2,8,7153
1343984991,5807,993.6500244140625000,195.7778015136718800,496.3005065917969000,7.6442217826843260,38.0976905822753900,52,104,100,80,82,14149,2146959433,2147515373,2147294116,2147519753,2147091648,2146925193,2147720265,2147117595,497,-2,8,4104
1343988591,5809,994.6099853515625000,194.7911071777343800,496.7276916503906000,7.6309781074523930,38.1675415039062500,52,102,99,79,82,14143,2146958902,2147514642,2147297645,2147523190,2147093229,2146924013,2147715026,2147117458,25,-1,8,50505
1343992191,5806,998.5900268554688000,195.8621978759765600,496.1777038574219000,7.6480259895324710,38.0901603698730500,53,102,103,78,82,14152,2146961974,2147516982,2147294848,2147520612,2147089984,2146923968,2147719168,2147118345,2974,-2,8,555
1343995791,5809,997.0000000000000000,194.6277008056640600,497.1369018554687500,7.6182909011840820,38.1855697631835940,53,102,101,79,82,14151,2146960603,2147518326,2147294491,2147519616,2147093083,2146925915,2147717568,2147118500,49,-2,8,42467
1343999391,5809,996.5900268554688000,194.6130981445312500,497.1227111816406000,7.6187329292297360,38.1863288879394500,52,106,101,80,82,14150,2146958262,2147517028,2147294290,2147521938,2147093330,2146923108,2147718308,2147117449,3594,-2,8,4429
1344002991,5807,992.7000122070312000,195.0377960205078000,498.2609863281250000,7.5834341049194340,38.1789588928222660,52,110,99,79,82,14148,2146959515,2147513472,2147292077,2147520054,2147090916,2146919899,2147717970,2147118244,431,-2,8,46353
1344006591,5806,998.5900268554688000,196.2413940429687500,498.9260864257812500,7.5628051757812500,38.1146812438964840,53,105,99,78,81,14148,2146958564,2147516672,2147295113,2147521645,2147091730,2146924059,2147716608,2147122358,482,-2,8,2725
1344010191,5805,997.5200195312500000,197.0200958251953000,498.5328979492187500,7.5750031471252440,38.0591697692871100,53,104,99,79,81,14151,2146957403,2147518656,2147297462,2147519149,2147087936,2146929993,2147713033,2147121828,2265,-2,8,59561
1344013791,5805,999.7000122070312000,196.0599060058593800,498.3619995117187500,7.5803008079528810,38.1160087585449200,52,102,101,80,81,14149,2146955355,2147518262,2147294555,2147522285,2147093293,2146921252,2147717577,2147121243,3448,-2,8,30691
1344017391,5806,1003.8499755859375000,196.2212982177734400,497.8927001953125000,7.5948538780212400,38.0978507995605500,52,106,99,78,81,14147,2146959789,2147516662,2147296658,2147521938,2147090614,2146922212,2147715858,2147118125,551,-2,8,7021
1344020991,5804,1003.2100219726562000,196.1257019042968800,497.7059936523437500,7.6006460189819340,38.1005592346191400,53,100,101,79,81,14145,2146955355,2147517961,2147296914,2147520347,2147089380,2146928100,2147714934,2147118610,843,-2,8,33896
1344024591,5807,1003.0399780273438000,196.1898040771484400,497.6513061523437500,7.6023430824279785,38.0957298278808600,52,103,99,80,81,14124,2146955785,2147514861,2147296850,2147520548,2147093952,2146928484,2147718390,2147117668,3101,-2,8,12310
1344028191,5805,997.2199707031250000,196.5086059570312500,498.3659057617187500,7.5801811218261720,38.0882682800293000,53,103,101,79,80,14148,2146958957,2147516388,2147295040,2147519113,2147094582,2146928969,2147717997,2147119168,3106,-2,8,61586
1344031791,5806,996.5700073242188000,198.0838928222656200,498.7979125976562500,7.5667819976806640,37.9964408874511700,52,104,99,79,81,14143,2146954953,2147518290,2147294006,2147522834,2147092196,2146920576,2147714532,2147120301,347,-2,8,44788
1344035391,5802,999.6599731445312000,198.8748931884765600,499.3959960937500000,7.5482320785522460,37.9573707580566400,52,102,100,79,81,14140,2146960000,2147518098,2147294582,2147517952,2147090870,2146925613,2147718619,2147118683,3318,-2,8,14982
1344038991,5806,994.0000000000000000,197.9555969238281200,499.9909973144531000,7.5297741889953610,38.0261802673339840,52,101,100,78,81,14135,2146960996,2147516306,2147296576,2147523355,2147092068,2146925129,2147719405,2147117312,103,-2,8,40317
1344042591,5806,993.2100219726562000,200.4340057373047000,500.6904907226562500,7.5080690383911130,37.8839416503906250,53,104,99,78,80,14138,2146957440,2147513609,2147296237,2147522925,2147090596,2146921901,2147716022,2147119552,7,-1,8,31262
1344046191,5806,996.0499877929688000,201.0413055419922000,501.5857849121094000,7.4802880287170410,37.8623390197753900,53,141,100,78,81,14135,2146956992,2147512877,2147296274,2147522212,2147089965,2146932406,2147719808,2147118381,3447,-1,8,31219
1344049791,5807,997.3699951171875000,201.1175994873047000,501.0386047363281000,7.4972691535949710,37.8482513427734400,52,115,99,79,81,14136,2146957878,2147519451,2147297133,2147521618,2147093641,2146925476,2147717101,2147120301,37,-2,8,45853
1344053391,5807,999.6900024414062000,199.8813018798828000,500.3898925781250000,7.5173978805541990,37.9127006530761700,53,103,98,78,81,14136,2146960064,2147516498,2147296402,2147519405,2147087872,2146927478,2147715081,2147118025,175,-2,8,37780
1344056991,5806,1003.4699707031250000,198.6829071044922000,499.8984069824219000,7.5326461791992190,37.9788284301757800,51,103,99,80,81,14136,2146954697,2147517494,2147294491,2147520301,2147090825,2146923510,2147717677,2147121481,2857,-2,8,49233
1344060591,5806,1004.7100219726562000,200.4698944091797000,499.9465026855469000,7.5311541557312010,37.8696517944335940,53,106,99,80,81,14133,2146958939,2147517540,2147296036,2147522139,2147090176,2146920329,2147712329,2147119104,2921,-2,8,46465
1344064191,5807,1003.9400024414062000,197.8002929687500000,498.9946899414062500,7.5606789588928220,38.0181007385253900,53,101,99,81,81,14134,2146958171,2147516525,2147294930,2147518838,2147090322,2146925010,2147714468,2147119067,3593,-2,8,10967
1344067791,5805,1009.4899902343750000,196.9096984863281200,498.1922912597656000,7.5855650901794430,38.0595207214355500,52,101,99,79,80,14137,2146959588,2147515218,2147296786,2147521307,2147090459,2146926793,2147716214,2147120512,199,-2,8,60382
1344071391,5807,1008.5100097656250000,196.4387054443359400,498.9707946777344000,7.5614199638366700,38.1023597717285160,52,102,101,79,81,14128,2146959168,2147513664,2147297270,2147520100,2147088320,2146921097,2147713920,2147120649,556,-2,8,22090
1344074991,5802,1007.0599975585938000,197.1865997314453000,499.1158142089844000,7.5569229125976560,38.0578384399414060,52,101,99,79,81,14126,2146957257,2147518966,2147296457,2147520228,2147089993,2146922989,2147716342,2147118134,291,-2,8,24756
1344078591,5803,1001.7899780273438000,197.3011932373047000,499.1846008300781000,7.5547881126403810,38.0525894165039060,52,106,99,78,81,14129,2146956982,2147516589,2147298358,2147520310,2147091172,2146923510,2147715885,2147118637,3527,-1,8,55703
1344082191,5805,1000.3200073242188000,197.4223022460937500,500.3537902832031000,7.5185179710388180,38.0652809143066400,53,100,100,80,81,14130,2146960667,2147517348,2147294445,2147518537,2147088868,2146927158,2147712914,2147121590,106,-1,8,43794
1344085791,5806,999.4299926757812000,199.3842010498047000,500.8656005859375000,7.5026369094848630,37.9521408081054700,52,101,104,78,81,14126,2146958518,2147516187,2147295707,2147523474,2147091227,2146923190,2147712822,2147117037,134,-2,8,13445
1344087355,5808,995.2800292968750000,200.7283020019531200,500.9923095703125000,7.4987039566040040,37.8717994689941400,52,103,100,80,83,14130,2146958217,2147516544,2147295488,2147522605,2147091108,2146924781,2147715483,2147118491,3578,-2,8,55467
